Time,TemperatureF,DewpointF,PressureIn,WindDirection,WindDirectionDegrees,WindSpeedMPH,WindSpeedGustMPH,Humidity,HourlyPrecipIn,Conditions,Clouds,dailyrainin,SolarRadiationWatts/m^2,SoftwareType,DateUTC
2013-01-31 00:00:00,38.0,35.3,30.31,SE,136,0.0,2.0,90,0.00,,,0.00,0,Wunderground v.1.15,2013-01-31 08:00:00,
2013-01-31 00:06:00,38.0,35.6,30.31,SE,136,0.0,3.0,91,0.00,,,0.00,0,Wunderground v.1.15,2013-01-31 08:06:00,
2013-01-31 00:12:00,37.8,35.1,30.31,SE,136,0.0,2.0,90,0.00,,,0.00,0,Wunderground v.1.15,2013-01-31 08:12:00,
2013-01-31 00:18:00,37.7,35.3,30.31,SE,136,0.0,2.0,91,0.00,,,0.00,0,Wunderground v.1.15,2013-01-31 08:18:00,
2013-01-31 00:24:00,37.6,35.2,30.30,SE,136,0.0,2.0,91,0.00,,,0.00,0,Wunderground v.1.15,2013-01-31 08:24:00,
2013-01-31 00:30:00,37.4,35.0,30.30,SE,136,0.0,2.0,91,0.00,,,0.00,0,Wunderground v.1.15,2013-01-31 08:30:00,
2013-01-31 00:36:00,37.3,34.9,30.30,SE,136,0.0,2.0,91,0.00,,,0.00,0,Wunderground v.1.15,2013-01-31 08:36:00,
2013-01-31 00:42:00,37.1,34.7,30.30,SE,136,0.0,2.0,91,0.00,,,0.00,0,Wunderground v.1.15,2013-01-31 08:42:00,
2013-01-31 00:48:00,37.0,34.6,30.30,SE,136,0.0,2.0,91,0.00,,,0.00,0,Wunderground v.1.15,2013-01-31 08:48:00,
2013-01-31 00:54:00,36.9,34.5,30.30,SE,136,0.0,2.0,91,0.00,,,0.00,0,Wunderground v.1.15,2013-01-31 08:54:00,
2013-01-31 01:00:00,36.8,34.4,30.30,SE,136,0.0,2.0,91,0.00,,,0.00,0,Wunderground v.1.15,2013-01-31 09:00:00,
2013-01-31 01:06:00,36.8,34.4,30.30,SE,136,0.0,2.0,91,0.00,,,0.00,0,Wunderground v.1.15,2013-01-31 09:06:00,
2013-01-31 01:12:00,36.6,34.2,30.30,SE,136,0.0,2.0,91,0.00,,,0.00,0,Wunderground v.1.15,2013-01-31 09:12:00,
2013-01-31 01:18:00,36.5,34.1,30.30,SE,136,0.0,2.0,91,0.00,,,0.00,0,Wunderground v.1.15,2013-01-31 09:18:00,
2013-01-31 01:24:00,36.4,34.0,30.30,SE,136,0.0,2.0,91,0.00,,,0.00,0,Wunderground v.1.15,2013-01-31 09:24:00,
2013-01-31 01:30:00,36.2,33.8,30.30,SE,136,0.0,2.0,91,0.00,,,0.00,0,Wunderground v.1.15,2013-01-31 09:30:00,
2013-01-31 01:36:00,36.1,33.7,30.30,SE,136,0.0,2.0,91,0.00,,,0.00,0,Wunderground v.1.15,2013-01-31 09:36:00,
2013-01-31 01:42:00,35.9,33.5,30.30,SE,136,0.0,2.0,91,0.00,,,0.00,0,Wunderground v.1.15,2013-01-31 09:42:00,
2013-01-31 01:48:00,35.9,33.5,30.30,SE,136,0.0,2.0,91,0.00,,,0.00,0,Wunderground v.1.15,2013-01-31 09:48:00,
2013-01-31 01:54:00,35.8,33.4,30.30,SE,136,0.0,2.0,91,0.00,,,0.00,0,Wunderground v.1.15,2013-01-31 09:54:00,
2013-01-31 02:00:00,35.8,33.7,30.30,SE,136,0.0,3.0,92,0.00,,,0.00,0,Wunderground v.1.15,2013-01-31 10:00:00,
2013-01-31 02:06:00,35.7,33.6,30.30,SE,136,0.0,3.0,92,0.00,,,0.00,0,Wunderground v.1.15,2013-01-31 10:06:00,
2013-01-31 02:12:00,35.7,33.6,30.30,SE,136,0.0,3.0,92,0.00,,,0.00,0,Wunderground v.1.15,2013-01-31 10:12:00,
2013-01-31 02:18:00,35.6,33.5,30.30,SE,136,0.0,3.0,92,0.00,,,0.00,0,Wunderground v.1.15,2013-01-31 10:18:00,
2013-01-31 02:24:00,35.5,33.4,30.30,SE,136,0.0,3.0,92,0.00,,,0.00,0,Wunderground v.1.15,2013-01-31 10:24:00,
2013-01-31 02:30:00,35.4,33.3,30.29,SE,136,0.0,3.0,92,0.00,,,0.00,0,Wunderground v.1.15,2013-01-31 10:30:00,
2013-01-31 02:36:00,35.2,33.1,30.29,SE,136,0.0,3.0,92,0.00,,,0.00,0,Wunderground v.1.15,2013-01-31 10:36:00,
2013-01-31 02:42:00,35.1,33.0,30.29,SE,136,0.0,3.0,92,0.00,,,0.00,0,Wunderground v.1.15,2013-01-31 10:42:00,
2013-01-31 02:48:00,35.0,32.9,30.29,SE,136,0.0,3.0,92,0.00,,,0.00,0,Wunderground v.1.15,2013-01-31 10:48:00,
2013-01-31 02:54:00,34.9,32.8,30.29,SE,136,0.0,3.0,92,0.00,,,0.00,0,Wunderground v.1.15,2013-01-31 10:54:00,
2013-01-31 03:00:00,34.8,32.7,30.29,SE,136,0.0,0.0,92,0.00,,,0.00,0,Wunderground v.1.15,2013-01-31 11:00:00,
2013-01-31 03:06:00,34.8,32.7,30.29,SE,136,0.0,0.0,92,0.00,,,0.00,0,Wunderground v.1.15,2013-01-31 11:06:00,
2013-01-31 03:12:00,34.7,32.6,30.29,SE,136,0.0,0.0,92,0.00,,,0.00,0,Wunderground v.1.15,2013-01-31 11:12:00,
2013-01-31 03:18:00,34.7,32.6,30.29,SE,136,0.0,0.0,92,0.00,,,0.00,0,Wunderground v.1.15,2013-01-31 11:18:00,
2013-01-31 03:24:00,34.6,32.5,30.28,SE,136,0.0,0.0,92,0.00,,,0.00,0,Wunderground v.1.15,2013-01-31 11:24:00,
2013-01-31 03:30:00,34.4,32.3,30.29,SE,136,0.0,0.0,92,0.00,,,0.00,0,Wunderground v.1.15,2013-01-31 11:30:00,
2013-01-31 03:36:00,34.3,32.2,30.28,SE,136,0.0,0.0,92,0.00,,,0.00,0,Wunderground v.1.15,2013-01-31 11:36:00,
2013-01-31 03:42:00,34.2,32.1,30.28,SE,136,0.0,0.0,92,0.00,,,0.00,0,Wunderground v.1.15,2013-01-31 11:42:00,
2013-01-31 03:48:00,34.1,32.0,30.28,SE,136,0.0,0.0,92,0.00,,,0.00,0,Wunderground v.1.15,2013-01-31 11:48:00,
2013-01-31 03:54:00,34.1,32.0,30.29,SE,136,0.0,0.0,92,0.00,,,0.00,0,Wunderground v.1.15,2013-01-31 11:54:00,
2013-01-31 04:00:00,34.0,31.9,30.29,SE,136,0.0,0.0,92,0.00,,,0.00,0,Wunderground v.1.15,2013-01-31 12:00:00,
2013-01-31 04:06:00,33.9,31.8,30.29,SE,136,0.0,0.0,92,0.00,,,0.00,0,Wunderground v.1.15,2013-01-31 12:06:00,
2013-01-31 04:12:00,33.8,31.7,30.29,SE,136,0.0,0.0,92,0.00,,,0.00,0,Wunderground v.1.15,2013-01-31 12:12:00,
2013-01-31 04:18:00,33.7,31.6,30.28,SE,136,0.0,0.0,92,0.00,,,0.00,0,Wunderground v.1.15,2013-01-31 12:18:00,
2013-01-31 04:24:00,33.7,31.6,30.28,SE,136,0.0,0.0,92,0.00,,,0.00,0,Wunderground v.1.15,2013-01-31 12:24:00,
2013-01-31 04:30:00,33.6,31.5,30.28,SE,136,0.0,0.0,92,0.00,,,0.00,0,Wunderground v.1.15,2013-01-31 12:30:00,
2013-01-31 04:36:00,33.7,31.6,30.28,SE,136,0.0,0.0,92,0.00,,,0.00,0,Wunderground v.1.15,2013-01-31 12:36:00,
2013-01-31 04:42:00,33.6,31.5,30.28,SE,136,0.0,0.0,92,0.00,,,0.00,0,Wunderground v.1.15,2013-01-31 12:42:00,
2013-01-31 04:48:00,33.5,31.4,30.29,SE,136,0.0,0.0,92,0.00,,,0.00,0,Wunderground v.1.15,2013-01-31 12:48:00,
2013-01-31 04:54:00,33.5,31.4,30.29,SE,136,0.0,0.0,92,0.00,,,0.00,0,Wunderground v.1.15,2013-01-31 12:54:00,
2013-01-31 05:00:00,33.5,31.4,30.29,SE,136,0.0,1.0,92,0.00,,,0.00,0,Wunderground v.1.15,2013-01-31 13:00:00,
2013-01-31 05:06:00,33.4,31.3,30.29,SE,136,0.0,1.0,92,0.00,,,0.00,0,Wunderground v.1.15,2013-01-31 13:06:00,
2013-01-31 05:12:00,33.3,31.2,30.29,SE,136,0.0,1.0,92,0.00,,,0.00,0,Wunderground v.1.15,2013-01-31 13:12:00,
2013-01-31 05:18:00,33.2,31.4,30.29,SE,136,0.0,1.0,93,0.00,,,0.00,0,Wunderground v.1.15,2013-01-31 13:18:00,
2013-01-31 05:23:00,33.2,31.4,30.29,SE,136,0.0,1.0,93,0.00,,,0.00,0,Wunderground v.1.15,2013-01-31 13:23:00,
2013-01-31 05:30:00,33.0,31.2,30.29,SE,136,0.0,1.0,93,0.00,,,0.00,0,Wunderground v.1.15,2013-01-31 13:30:00,
2013-01-31 05:36:00,33.0,31.2,30.29,SE,136,0.0,1.0,93,0.00,,,0.00,0,Wunderground v.1.15,2013-01-31 13:36:00,
2013-01-31 05:41:00,32.9,31.1,30.30,SE,136,0.0,1.0,93,0.00,,,0.00,0,Wunderground v.1.15,2013-01-31 13:41:00,
2013-01-31 05:48:00,32.9,31.1,30.29,SE,136,0.0,1.0,93,0.00,,,0.00,0,Wunderground v.1.15,2013-01-31 13:48:00,
2013-01-31 05:54:00,32.9,31.1,30.29,SE,136,0.0,1.0,93,0.00,,,0.00,0,Wunderground v.1.15,2013-01-31 13:54:00,
2013-01-31 06:00:00,32.9,31.1,30.29,SE,136,0.0,1.0,93,0.00,,,0.00,0,Wunderground v.1.15,2013-01-31 14:00:00,
2013-01-31 06:06:00,32.9,31.1,30.30,SE,136,0.0,2.0,93,0.00,,,0.00,0,Wunderground v.1.15,2013-01-31 14:06:00,
2013-01-31 06:11:00,32.8,31.0,30.30,SE,136,0.0,1.0,93,0.00,,,0.00,0,Wunderground v.1.15,2013-01-31 14:11:00,
2013-01-31 06:18:00,32.7,30.9,30.30,SE,136,0.0,1.0,93,0.00,,,0.00,0,Wunderground v.1.15,2013-01-31 14:18:00,
2013-01-31 06:24:00,32.7,30.9,30.30,SE,136,0.0,1.0,93,0.00,,,0.00,0,Wunderground v.1.15,2013-01-31 14:24:00,
2013-01-31 06:30:00,32.6,30.8,30.30,SE,136,0.0,1.0,93,0.00,,,0.00,0,Wunderground v.1.15,2013-01-31 14:30:00,
2013-01-31 06:36:00,32.7,30.9,30.30,SE,136,0.0,1.0,93,0.00,,,0.00,0,Wunderground v.1.15,2013-01-31 14:36:00,
2013-01-31 06:42:00,32.7,30.9,30.30,SE,136,0.0,1.0,93,0.00,,,0.00,0,Wunderground v.1.15,2013-01-31 14:42:00,
2013-01-31 06:48:00,32.6,30.8,30.30,SE,136,0.0,1.0,93,0.00,,,0.00,0,Wunderground v.1.15,2013-01-31 14:48:00,
2013-01-31 06:54:00,32.6,30.8,30.30,SE,136,0.0,1.0,93,0.00,,,0.00,0,Wunderground v.1.15,2013-01-31 14:54:00,
2013-01-31 07:00:00,32.6,30.8,30.30,SE,136,0.0,0.0,93,0.00,,,0.00,0,Wunderground v.1.15,2013-01-31 15:00:00,
2013-01-31 07:06:00,32.6,30.8,30.30,SE,136,0.0,0.0,93,0.00,,,0.00,0,Wunderground v.1.15,2013-01-31 15:06:00,
2013-01-31 07:12:00,32.6,30.8,30.30,SE,136,0.0,0.0,93,0.00,,,0.00,0,Wunderground v.1.15,2013-01-31 15:12:00,
2013-01-31 07:18:00,32.7,30.9,30.30,SE,136,0.0,0.0,93,0.00,,,0.00,5,Wunderground v.1.15,2013-01-31 15:18:00,
2013-01-31 07:24:00,32.6,30.8,30.31,SE,136,0.0,0.0,93,0.00,,,0.00,7,Wunderground v.1.15,2013-01-31 15:24:00,
2013-01-31 07:30:00,32.5,30.7,30.31,SE,136,0.0,0.0,93,0.00,,,0.00,11,Wunderground v.1.15,2013-01-31 15:30:00,
2013-01-31 07:36:00,32.5,30.7,30.31,SE,136,0.0,0.0,93,0.00,,,0.01,12,Wunderground v.1.15,2013-01-31 15:36:00,
2013-01-31 07:42:00,32.5,30.7,30.31,SE,136,0.0,0.0,93,0.00,,,0.01,16,Wunderground v.1.15,2013-01-31 15:42:00,
2013-01-31 07:47:00,32.5,30.7,30.31,SE,136,0.0,0.0,93,0.00,,,0.01,23,Wunderground v.1.15,2013-01-31 15:47:00,
2013-01-31 07:54:00,32.8,31.3,30.31,SE,136,0.0,0.0,94,0.00,,,0.01,28,Wunderground v.1.15,2013-01-31 15:54:00,
2013-01-31 08:00:00,33.1,31.6,30.31,SE,136,0.0,1.0,94,0.00,,,0.01,35,Wunderground v.1.15,2013-01-31 16:00:00,
2013-01-31 08:06:00,33.5,32.0,30.31,SE,136,0.0,1.0,94,0.00,,,0.01,54,Wunderground v.1.15,2013-01-31 16:06:00,
2013-01-31 08:12:00,34.0,32.5,30.31,SE,136,0.0,1.0,94,0.00,,,0.01,62,Wunderground v.1.15,2013-01-31 16:12:00,
2013-01-31 08:18:00,34.6,33.1,30.31,SE,136,0.0,1.0,94,0.00,,,0.01,70,Wunderground v.1.15,2013-01-31 16:18:00,
2013-01-31 08:24:00,35.3,34.0,30.31,SE,136,0.0,1.0,95,0.00,,,0.01,58,Wunderground v.1.15,2013-01-31 16:24:00,
2013-01-31 08:29:00,36.0,34.7,30.31,SE,136,0.0,1.0,95,0.00,,,0.01,72,Wunderground v.1.15,2013-01-31 16:29:00,
2013-01-31 08:36:00,36.9,35.6,30.31,SE,136,0.0,1.0,95,0.00,,,0.01,118,Wunderground v.1.15,2013-01-31 16:36:00,
2013-01-31 08:42:00,38.6,37.3,30.31,SE,136,0.0,1.0,95,0.00,,,0.01,148,Wunderground v.1.15,2013-01-31 16:42:00,
2013-01-31 08:48:00,39.3,38.0,30.31,SE,136,0.0,1.0,95,0.00,,,0.01,172,Wunderground v.1.15,2013-01-31 16:48:00,
2013-01-31 08:54:00,40.4,39.1,30.31,SE,136,0.0,1.0,95,0.00,,,0.01,223,Wunderground v.1.15,2013-01-31 16:54:00,
2013-01-31 09:00:00,41.6,40.3,30.31,SE,136,0.0,3.0,95,0.00,,,0.01,241,Wunderground v.1.15,2013-01-31 17:00:00,
2013-01-31 09:06:00,42.4,41.1,30.31,SE,136,0.0,3.0,95,0.00,,,0.01,258,Wunderground v.1.15,2013-01-31 17:06:00,
2013-01-31 09:12:00,43.3,42.0,30.31,SE,136,0.0,3.0,95,0.00,,,0.01,274,Wunderground v.1.15,2013-01-31 17:12:00,
2013-01-31 09:18:00,44.5,42.9,30.31,SE,136,0.0,3.0,94,0.00,,,0.01,288,Wunderground v.1.15,2013-01-31 17:18:00,
2013-01-31 09:24:00,45.7,43.8,30.31,SE,136,0.0,3.0,93,0.00,,,0.01,304,Wunderground v.1.15,2013-01-31 17:24:00,
2013-01-31 09:29:00,46.9,44.4,30.31,SE,136,0.0,3.0,91,0.00,,,0.01,318,Wunderground v.1.15,2013-01-31 17:29:00,
2013-01-31 09:36:00,48.3,45.2,30.31,SE,136,0.0,3.0,89,0.00,,,0.01,330,Wunderground v.1.15,2013-01-31 17:36:00,
2013-01-31 09:42:00,49.7,45.1,30.31,SE,136,0.0,3.0,84,0.00,,,0.01,345,Wunderground v.1.15,2013-01-31 17:42:00,
2013-01-31 09:48:00,51.2,45.2,30.31,SE,136,0.0,3.0,80,0.00,,,0.01,359,Wunderground v.1.15,2013-01-31 17:48:00,
2013-01-31 09:54:00,52.5,45.2,30.31,SE,136,0.0,3.0,76,0.00,,,0.01,371,Wunderground v.1.15,2013-01-31 17:54:00,
2013-01-31 10:00:00,53.5,45.4,30.31,SE,136,0.0,4.0,74,0.00,,,0.01,385,Wunderground v.1.15,2013-01-31 18:00:00,
2013-01-31 10:06:00,54.5,45.3,30.31,SE,136,0.0,4.0,71,0.00,,,0.01,397,Wunderground v.1.15,2013-01-31 18:06:00,
2013-01-31 10:12:00,55.5,45.1,30.31,SE,136,0.0,4.0,68,0.00,,,0.01,418,Wunderground v.1.15,2013-01-31 18:12:00,
2013-01-31 10:18:00,56.5,45.3,30.31,SE,136,0.0,4.0,66,0.00,,,0.01,434,Wunderground v.1.15,2013-01-31 18:18:00,
2013-01-31 10:24:00,57.3,44.8,30.31,SE,136,0.0,4.0,63,0.00,,,0.01,445,Wunderground v.1.15,2013-01-31 18:24:00,
2013-01-31 10:29:00,57.7,44.3,30.31,SE,136,0.0,4.0,61,0.00,,,0.01,461,Wunderground v.1.15,2013-01-31 18:29:00,
2013-01-31 10:36:00,58.3,44.5,30.30,SE,136,0.0,4.0,60,0.00,,,0.01,471,Wunderground v.1.15,2013-01-31 18:36:00,
2013-01-31 10:42:00,58.7,44.0,30.30,SE,136,0.0,4.0,58,0.00,,,0.01,482,Wunderground v.1.15,2013-01-31 18:42:00,
2013-01-31 10:48:00,59.4,45.1,30.30,SE,136,0.0,4.0,59,0.00,,,0.01,77,Wunderground v.1.15,2013-01-31 18:48:00,
2013-01-31 10:54:00,59.7,44.4,30.30,SE,136,0.0,4.0,57,0.00,,,0.01,503,Wunderground v.1.15,2013-01-31 18:54:00,
2013-01-31 11:00:00,60.2,44.0,30.30,SE,136,0.0,2.0,55,0.00,,,0.01,513,Wunderground v.1.15,2013-01-31 19:00:00,
2013-01-31 11:06:00,60.3,44.5,30.29,SE,136,1.0,2.0,56,0.00,,,0.01,519,Wunderground v.1.15,2013-01-31 19:06:00,
2013-01-31 11:12:00,60.5,44.7,30.29,SE,136,1.0,3.0,56,0.00,,,0.01,526,Wunderground v.1.15,2013-01-31 19:12:00,
2013-01-31 11:18:00,60.7,45.4,30.29,SE,136,2.0,4.0,57,0.00,,,0.01,534,Wunderground v.1.15,2013-01-31 19:18:00,
2013-01-31 11:24:00,60.8,44.5,30.29,SE,136,2.0,3.0,55,0.00,,,0.01,541,Wunderground v.1.15,2013-01-31 19:24:00,
2013-01-31 11:29:00,61.2,45.4,30.29,SE,136,2.0,2.0,56,0.00,,,0.01,548,Wunderground v.1.15,2013-01-31 19:29:00,
2013-01-31 11:36:00,61.4,45.6,30.28,SE,126,2.0,4.0,56,0.00,,,0.01,552,Wunderground v.1.15,2013-01-31 19:36:00,
2013-01-31 11:42:00,61.7,45.4,30.28,SE,127,2.0,4.0,55,0.00,,,0.01,557,Wunderground v.1.15,2013-01-31 19:42:00,
2013-01-31 11:48:00,61.9,45.1,30.28,SE,126,3.0,5.0,54,0.00,,,0.01,559,Wunderground v.1.15,2013-01-31 19:48:00,
2013-01-31 11:54:00,62.1,44.8,30.27,SE,132,3.0,5.0,53,0.00,,,0.01,561,Wunderground v.1.15,2013-01-31 19:54:00,
2013-01-31 12:00:00,62.5,44.6,30.27,SE,133,3.0,6.0,52,0.00,,,0.01,568,Wunderground v.1.15,2013-01-31 20:00:00,
2013-01-31 12:06:00,62.8,45.4,30.27,ESE,122,3.0,6.0,53,0.00,,,0.01,571,Wunderground v.1.15,2013-01-31 20:06:00,
2013-01-31 12:11:00,62.9,45.5,30.27,SE,141,4.0,8.0,53,0.00,,,0.01,575,Wunderground v.1.15,2013-01-31 20:11:00,
2013-01-31 12:18:00,62.9,45.5,30.27,SE,142,4.0,8.0,53,0.00,,,0.01,575,Wunderground v.1.15,2013-01-31 20:18:00,
2013-01-31 12:24:00,62.9,46.0,30.27,SE,140,4.0,6.0,54,0.00,,,0.01,577,Wunderground v.1.15,2013-01-31 20:24:00,
2013-01-31 12:29:00,62.9,46.0,30.26,SE,146,4.0,6.0,54,0.00,,,0.01,577,Wunderground v.1.15,2013-01-31 20:29:00,
2013-01-31 12:36:00,62.9,45.5,30.26,ESE,114,4.0,6.0,53,0.00,,,0.01,577,Wunderground v.1.15,2013-01-31 20:36:00,
2013-01-31 12:42:00,62.9,45.5,30.25,ESE,105,4.0,6.0,53,0.00,,,0.01,575,Wunderground v.1.15,2013-01-31 20:42:00,
2013-01-31 12:47:00,63.0,45.6,30.25,SE,138,4.0,6.0,53,0.00,,,0.01,573,Wunderground v.1.15,2013-01-31 20:47:00,
2013-01-31 12:54:00,63.3,45.4,30.25,SE,140,4.0,7.0,52,0.00,,,0.01,571,Wunderground v.1.15,2013-01-31 20:54:00,
2013-01-31 13:00:00,63.5,45.0,30.25,SE,138,4.0,4.0,51,0.00,,,0.01,570,Wunderground v.1.15,2013-01-31 21:00:00,
2013-01-31 13:05:00,63.6,45.6,30.25,SE,128,4.0,10.0,52,0.00,,,0.01,564,Wunderground v.1.15,2013-01-31 21:05:00,
2013-01-31 13:11:00,63.9,45.9,30.24,SE,134,4.0,10.0,52,0.00,,,0.01,561,Wunderground v.1.15,2013-01-31 21:11:00,
2013-01-31 13:17:00,64.0,45.5,30.24,ESE,113,4.0,10.0,51,0.00,,,0.01,555,Wunderground v.1.15,2013-01-31 21:17:00,
2013-01-31 13:24:00,63.9,44.9,30.23,SE,138,4.0,10.0,50,0.00,,,0.01,550,Wunderground v.1.15,2013-01-31 21:24:00,
2013-01-31 13:30:00,64.3,45.8,30.23,ESE,113,3.0,3.0,51,0.00,,,0.01,543,Wunderground v.1.15,2013-01-31 21:30:00,
2013-01-31 13:35:00,64.7,45.6,30.23,ESE,121,3.0,10.0,50,0.00,,,0.01,538,Wunderground v.1.15,2013-01-31 21:35:00,
2013-01-31 13:41:00,64.7,45.1,30.23,SE,128,3.0,10.0,49,0.00,,,0.01,531,Wunderground v.1.15,2013-01-31 21:41:00,
2013-01-31 13:47:00,64.9,44.7,30.23,ESE,113,3.0,10.0,48,0.00,,,0.01,524,Wunderground v.1.15,2013-01-31 21:47:00,
2013-01-31 13:54:00,65.0,44.8,30.22,SE,130,3.0,10.0,48,0.00,,,0.01,515,Wunderground v.1.15,2013-01-31 21:54:00,
2013-01-31 13:59:00,65.1,44.9,30.22,SE,128,2.0,2.0,48,0.00,,,0.01,506,Wunderground v.1.15,2013-01-31 21:59:00,
2013-01-31 14:05:00,65.5,45.3,30.22,SE,134,3.0,9.0,48,0.00,,,0.01,497,Wunderground v.1.15,2013-01-31 22:05:00,
2013-01-31 14:11:00,65.6,46.5,30.22,ESE,106,3.0,6.0,50,0.00,,,0.01,487,Wunderground v.1.15,2013-01-31 22:11:00,
2013-01-31 14:17:00,65.7,46.0,30.22,ESE,103,4.0,9.0,49,0.00,,,0.01,476,Wunderground v.1.15,2013-01-31 22:17:00,
2013-01-31 14:23:00,65.8,46.6,30.22,ESE,123,3.0,9.0,50,0.00,,,0.01,464,Wunderground v.1.15,2013-01-31 22:23:00,
2013-01-31 14:29:00,65.7,46.5,30.22,ESE,111,3.0,9.0,50,0.00,,,0.01,454,Wunderground v.1.15,2013-01-31 22:29:00,
2013-01-31 14:35:00,65.7,46.5,30.22,SE,138,3.0,9.0,50,0.00,,,0.01,441,Wunderground v.1.15,2013-01-31 22:35:00,
2013-01-31 14:41:00,65.6,46.5,30.22,SE,136,4.0,9.0,50,0.00,,,0.01,429,Wunderground v.1.15,2013-01-31 22:41:00,
2013-01-31 14:47:00,65.5,46.4,30.22,SE,134,4.0,9.0,50,0.00,,,0.01,417,Wunderground v.1.15,2013-01-31 22:47:00,
2013-01-31 14:53:00,65.5,45.8,30.22,SE,136,4.0,9.0,49,0.00,,,0.01,401,Wunderground v.1.15,2013-01-31 22:53:00,
2013-01-31 14:59:00,65.5,46.4,30.21,ESE,113,3.0,8.0,50,0.00,,,0.01,385,Wunderground v.1.15,2013-01-31 22:59:00,
2013-01-31 15:05:00,65.6,46.5,30.21,ESE,118,3.0,8.0,50,0.00,,,0.01,373,Wunderground v.1.15,2013-01-31 23:05:00,
2013-01-31 15:11:00,65.7,46.5,30.22,SE,131,4.0,8.0,50,0.00,,,0.01,357,Wunderground v.1.15,2013-01-31 23:11:00,
2013-01-31 15:17:00,65.6,46.5,30.21,SE,127,3.0,8.0,50,0.00,,,0.01,343,Wunderground v.1.15,2013-01-31 23:17:00,
2013-01-31 15:23:00,65.5,46.9,30.21,SE,134,3.0,8.0,51,0.00,,,0.01,327,Wunderground v.1.15,2013-01-31 23:23:00,
2013-01-31 15:29:00,65.5,46.9,30.21,SSE,154,3.0,3.0,51,0.00,,,0.01,227,Wunderground v.1.15,2013-01-31 23:29:00,
2013-01-31 15:35:00,65.7,47.1,30.21,SE,141,2.0,8.0,51,0.00,,,0.01,294,Wunderground v.1.15,2013-01-31 23:35:00,
2013-01-31 15:41:00,65.6,47.0,30.21,SE,136,2.0,8.0,51,0.00,,,0.01,276,Wunderground v.1.15,2013-01-31 23:41:00,
2013-01-31 15:47:00,65.4,47.3,30.21,SE,135,3.0,8.0,52,0.00,,,0.01,253,Wunderground v.1.15,2013-01-31 23:47:00,
2013-01-31 15:53:00,65.3,47.2,30.21,SE,142,3.0,8.0,52,0.00,,,0.01,232,Wunderground v.1.15,2013-01-31 23:53:00,
2013-01-31 15:59:00,65.0,47.4,30.21,ESE,121,3.0,3.0,53,0.00,,,0.01,211,Wunderground v.1.15,2013-01-31 23:59:00,
2013-01-31 16:05:00,64.8,47.3,30.20,ESE,121,3.0,7.0,53,0.00,,,0.01,188,Wunderground v.1.15,2013-02-01 00:05:00,
2013-01-31 16:11:00,64.4,47.4,30.21,SE,133,3.0,7.0,54,0.00,,,0.01,167,Wunderground v.1.15,2013-02-01 00:11:00,
2013-01-31 16:17:00,64.1,47.6,30.21,SE,138,2.0,7.0,55,0.00,,,0.01,146,Wunderground v.1.15,2013-02-01 00:17:00,
2013-01-31 16:23:00,63.6,47.6,30.21,SE,137,2.0,7.0,56,0.00,,,0.01,121,Wunderground v.1.15,2013-02-01 00:23:00,
2013-01-31 16:29:00,63.4,47.4,30.21,SE,138,3.0,3.0,56,0.00,,,0.01,105,Wunderground v.1.15,2013-02-01 00:29:00,
2013-01-31 16:35:00,63.2,47.7,30.21,SE,134,3.0,7.0,57,0.00,,,0.01,86,Wunderground v.1.15,2013-02-01 00:35:00,
2013-01-31 16:41:00,62.9,47.9,30.21,SE,133,3.0,7.0,58,0.00,,,0.01,70,Wunderground v.1.15,2013-02-01 00:41:00,
2013-01-31 16:47:00,62.6,47.6,30.21,SE,135,2.0,7.0,58,0.00,,,0.01,54,Wunderground v.1.15,2013-02-01 00:47:00,
2013-01-31 16:53:00,62.4,47.9,30.21,SE,135,2.0,7.0,59,0.00,,,0.01,40,Wunderground v.1.15,2013-02-01 00:53:00,
2013-01-31 16:59:00,62.2,48.1,30.21,SE,135,2.0,2.0,60,0.00,,,0.01,28,Wunderground v.1.15,2013-02-01 00:59:00,
2013-01-31 17:05:00,62.0,48.0,30.21,SE,135,1.0,9.0,60,0.00,,,0.01,21,Wunderground v.1.15,2013-02-01 01:05:00,
2013-01-31 17:11:00,61.8,47.8,30.21,SE,136,1.0,9.0,60,0.00,,,0.01,16,Wunderground v.1.15,2013-02-01 01:11:00,
2013-01-31 17:17:00,61.5,47.9,30.21,SE,136,2.0,9.0,61,0.00,,,0.01,12,Wunderground v.1.15,2013-02-01 01:17:00,
2013-01-31 17:23:00,61.1,47.5,30.21,SE,136,1.0,9.0,61,0.00,,,0.01,11,Wunderground v.1.15,2013-02-01 01:23:00,
2013-01-31 17:29:00,60.8,47.7,30.21,SE,136,0.0,9.0,62,0.00,,,0.01,7,Wunderground v.1.15,2013-02-01 01:29:00,
2013-01-31 17:35:00,60.5,47.4,30.21,SE,136,0.0,9.0,62,0.00,,,0.01,0,Wunderground v.1.15,2013-02-01 01:35:00,
2013-01-31 17:41:00,60.2,47.6,30.21,SE,136,0.0,9.0,63,0.00,,,0.01,0,Wunderground v.1.15,2013-02-01 01:41:00,
2013-01-31 17:47:00,59.8,47.2,30.21,SE,136,0.0,9.0,63,0.00,,,0.01,0,Wunderground v.1.15,2013-02-01 01:47:00,
2013-01-31 17:53:00,59.4,46.8,30.21,SE,136,0.0,9.0,63,0.00,,,0.01,0,Wunderground v.1.15,2013-02-01 01:53:00,
2013-01-31 17:59:00,58.8,47.1,30.21,SE,136,0.0,5.0,65,0.00,,,0.01,0,Wunderground v.1.15,2013-02-01 01:59:00,
2013-01-31 18:05:00,58.1,46.8,30.21,SE,136,0.0,5.0,66,0.00,,,0.01,0,Wunderground v.1.15,2013-02-01 02:05:00,
2013-01-31 18:11:00,57.2,46.3,30.21,SE,136,0.0,5.0,67,0.00,,,0.01,0,Wunderground v.1.15,2013-02-01 02:11:00,
2013-01-31 18:17:00,56.3,46.3,30.21,SE,136,0.0,5.0,69,0.00,,,0.01,0,Wunderground v.1.15,2013-02-01 02:17:00,
2013-01-31 18:23:00,55.6,46.0,30.21,SE,136,0.0,5.0,70,0.00,,,0.01,0,Wunderground v.1.15,2013-02-01 02:23:00,
2013-01-31 18:29:00,55.0,45.8,30.21,SE,136,0.0,5.0,71,0.00,,,0.01,0,Wunderground v.1.15,2013-02-01 02:29:00,
2013-01-31 18:35:00,54.5,45.3,30.21,SE,136,0.0,5.0,71,0.00,,,0.01,0,Wunderground v.1.15,2013-02-01 02:35:00,
2013-01-31 18:41:00,54.1,45.3,30.21,SE,136,0.0,5.0,72,0.00,,,0.01,0,Wunderground v.1.15,2013-02-01 02:41:00,
2013-01-31 18:47:00,53.6,44.8,30.22,SE,136,0.0,5.0,72,0.00,,,0.01,0,Wunderground v.1.15,2013-02-01 02:47:00,
2013-01-31 18:53:00,53.1,44.7,30.22,SE,136,0.0,5.0,73,0.00,,,0.01,0,Wunderground v.1.15,2013-02-01 02:53:00,
2013-01-31 18:59:00,52.6,44.2,30.22,SE,136,0.0,1.0,73,0.00,,,0.01,0,Wunderground v.1.15,2013-02-01 02:59:00,
2013-01-31 19:05:00,52.2,43.8,30.22,SE,136,0.0,1.0,73,0.00,,,0.01,0,Wunderground v.1.15,2013-02-01 03:05:00,
2013-01-31 19:11:00,51.8,44.5,30.22,SE,136,0.0,1.0,76,0.00,,,0.01,0,Wunderground v.1.15,2013-02-01 03:11:00,
2013-01-31 19:17:00,51.3,44.0,30.22,SE,136,0.0,1.0,76,0.00,,,0.01,0,Wunderground v.1.15,2013-02-01 03:17:00,
2013-01-31 19:23:00,50.9,43.6,30.22,SE,136,0.0,1.0,76,0.00,,,0.01,0,Wunderground v.1.15,2013-02-01 03:23:00,
2013-01-31 19:29:00,50.3,43.4,30.22,SE,136,0.0,1.0,77,0.00,,,0.01,0,Wunderground v.1.15,2013-02-01 03:29:00,
2013-01-31 19:35:00,49.7,43.1,30.22,SE,136,0.0,1.0,78,0.00,,,0.01,0,Wunderground v.1.15,2013-02-01 03:35:00,
2013-01-31 19:41:00,49.2,43.0,30.22,SE,136,0.0,1.0,79,0.00,,,0.01,0,Wunderground v.1.15,2013-02-01 03:41:00,
2013-01-31 19:47:00,48.8,42.6,30.22,SE,136,0.0,1.0,79,0.00,,,0.01,0,Wunderground v.1.15,2013-02-01 03:47:00,
2013-01-31 19:53:00,48.5,42.6,30.22,SE,136,0.0,1.0,80,0.00,,,0.01,0,Wunderground v.1.15,2013-02-01 03:53:00,
2013-01-31 20:00:00,48.1,42.2,30.21,SE,136,0.0,0.0,80,0.00,,,0.01,0,Wunderground v.1.15,2013-02-01 04:00:00,
2013-01-31 20:05:00,47.8,41.9,30.22,SE,136,0.0,0.0,80,0.00,,,0.01,0,Wunderground v.1.15,2013-02-01 04:05:00,
2013-01-31 20:11:00,47.3,41.8,30.21,SE,136,0.0,0.0,81,0.00,,,0.01,0,Wunderground v.1.15,2013-02-01 04:11:00,
2013-01-31 20:17:00,46.9,41.4,30.21,SE,136,0.0,0.0,81,0.00,,,0.01,0,Wunderground v.1.15,2013-02-01 04:17:00,
2013-01-31 20:23:00,46.6,41.1,30.22,SE,136,0.0,0.0,81,0.00,,,0.01,0,Wunderground v.1.15,2013-02-01 04:23:00,
2013-01-31 20:29:00,46.3,40.8,30.22,SE,136,0.0,0.0,81,0.00,,,0.01,0,Wunderground v.1.15,2013-02-01 04:29:00,
2013-01-31 20:35:00,45.9,40.7,30.21,SE,136,0.0,0.0,82,0.00,,,0.01,0,Wunderground v.1.15,2013-02-01 04:35:00,
2013-01-31 20:41:00,45.6,40.4,30.21,SE,136,0.0,0.0,82,0.00,,,0.01,0,Wunderground v.1.15,2013-02-01 04:41:00,
2013-01-31 20:47:00,45.3,40.4,30.22,SE,136,0.0,0.0,83,0.00,,,0.01,0,Wunderground v.1.15,2013-02-01 04:47:00,
2013-01-31 20:53:00,45.0,40.1,30.21,SE,136,0.0,0.0,83,0.00,,,0.01,0,Wunderground v.1.15,2013-02-01 04:53:00,
2013-01-31 21:00:00,44.7,39.9,30.22,SE,136,0.0,0.0,83,0.00,,,0.01,0,Wunderground v.1.15,2013-02-01 05:00:00,
2013-01-31 21:03:00,44.5,39.7,30.22,SE,136,0.0,0.0,83,0.00,,,0.01,0,Wunderground v.1.15,2013-02-01 05:03:00,
2013-01-31 21:05:00,44.5,40.0,30.22,SE,136,0.0,0.0,84,0.00,,,0.01,0,Wunderground v.1.15,2013-02-01 05:05:00,
2013-01-31 21:11:00,44.2,39.7,30.22,SE,136,0.0,0.0,84,0.00,,,0.01,0,Wunderground v.1.15,2013-02-01 05:11:00,
2013-01-31 21:13:00,44.1,39.6,30.22,SE,136,0.0,0.0,84,0.00,,,0.01,0,Wunderground v.1.15,2013-02-01 05:13:00,
2013-01-31 21:19:00,43.9,39.4,30.22,SE,136,0.0,0.0,84,0.00,,,0.01,0,Wunderground v.1.15,2013-02-01 05:19:00,
2013-01-31 21:25:00,43.6,39.1,30.22,SE,136,0.0,0.0,84,0.00,,,0.01,0,Wunderground v.1.15,2013-02-01 05:25:00,
2013-01-31 21:27:00,43.5,39.0,30.22,SE,136,0.0,0.0,84,0.00,,,0.01,0,Wunderground v.1.15,2013-02-01 05:27:00,
2013-01-31 21:33:00,43.3,39.1,30.22,SE,136,0.0,0.0,85,0.00,,,0.01,0,Wunderground v.1.15,2013-02-01 05:33:00,
2013-01-31 21:39:00,43.0,38.8,30.21,SE,136,0.0,0.0,85,0.00,,,0.01,0,Wunderground v.1.15,2013-02-01 05:39:00,
2013-01-31 21:45:00,42.8,38.6,30.21,SE,136,0.0,0.0,85,0.00,,,0.01,0,Wunderground v.1.15,2013-02-01 05:45:00,
2013-01-31 21:51:00,42.6,38.7,30.22,SE,136,0.0,0.0,86,0.00,,,0.01,0,Wunderground v.1.15,2013-02-01 05:51:00,
2013-01-31 21:57:00,42.4,38.5,30.22,SE,136,0.0,0.0,86,0.00,,,0.01,0,Wunderground v.1.15,2013-02-01 05:57:00,
2013-01-31 22:03:00,42.2,38.3,30.22,SE,136,0.0,0.0,86,0.00,,,0.01,0,Wunderground v.1.15,2013-02-01 06:03:00,
2013-01-31 22:09:00,42.0,38.1,30.22,SE,136,0.0,0.0,86,0.00,,,0.01,0,Wunderground v.1.15,2013-02-01 06:09:00,
2013-01-31 22:15:00,41.8,37.9,30.22,SE,136,0.0,0.0,86,0.00,,,0.01,0,Wunderground v.1.15,2013-02-01 06:15:00,
2013-01-31 22:21:00,41.5,37.9,30.22,SE,136,0.0,0.0,87,0.00,,,0.01,0,Wunderground v.1.15,2013-02-01 06:21:00,
2013-01-31 22:27:00,41.3,37.7,30.22,SE,136,0.0,1.0,87,0.00,,,0.01,0,Wunderground v.1.15,2013-02-01 06:27:00,
2013-01-31 22:33:00,41.0,37.4,30.21,SE,136,0.0,0.0,87,0.00,,,0.01,0,Wunderground v.1.15,2013-02-01 06:33:00,
2013-01-31 22:39:00,40.9,37.6,30.21,SE,136,0.0,0.0,88,0.00,,,0.01,0,Wunderground v.1.15,2013-02-01 06:39:00,
2013-01-31 22:45:00,40.7,37.4,30.21,SE,136,0.0,0.0,88,0.00,,,0.01,0,Wunderground v.1.15,2013-02-01 06:45:00,
2013-01-31 22:51:00,40.5,37.2,30.22,SE,136,0.0,0.0,88,0.00,,,0.01,0,Wunderground v.1.15,2013-02-01 06:51:00,
2013-01-31 22:57:00,40.3,37.0,30.22,SE,136,0.0,0.0,88,0.00,,,0.01,0,Wunderground v.1.15,2013-02-01 06:57:00,
2013-01-31 23:03:00,40.2,36.9,30.22,SE,136,0.0,1.0,88,0.00,,,0.01,0,Wunderground v.1.15,2013-02-01 07:03:00,
2013-01-31 23:09:00,40.0,37.0,30.22,SE,136,0.0,1.0,89,0.00,,,0.01,0,Wunderground v.1.15,2013-02-01 07:09:00,
2013-01-31 23:15:00,39.9,36.9,30.22,SE,136,0.0,1.0,89,0.00,,,0.01,0,Wunderground v.1.15,2013-02-01 07:15:00,
2013-01-31 23:21:00,39.7,36.7,30.22,SE,136,0.0,1.0,89,0.00,,,0.01,0,Wunderground v.1.15,2013-02-01 07:21:00,
2013-01-31 23:27:00,39.5,36.5,30.22,SE,136,0.0,1.0,89,0.00,,,0.01,0,Wunderground v.1.15,2013-02-01 07:27:00,
2013-01-31 23:33:00,39.4,36.4,30.22,SE,136,0.0,1.0,89,0.00,,,0.01,0,Wunderground v.1.15,2013-02-01 07:33:00,
2013-01-31 23:39:00,39.2,36.2,30.22,SE,136,0.0,1.0,89,0.00,,,0.01,0,Wunderground v.1.15,2013-02-01 07:39:00,
2013-01-31 23:45:00,39.0,36.0,30.22,SE,136,0.0,1.0,89,0.00,,,0.01,0,Wunderground v.1.15,2013-02-01 07:45:00,
2013-01-31 23:51:00,38.9,35.9,30.22,SE,136,0.0,1.0,89,0.00,,,0.01,0,Wunderground v.1.15,2013-02-01 07:51:00,
2013-01-31 23:57:00,38.7,35.7,30.22,SE,136,0.0,1.0,89,0.00,,,0.01,0,Wunderground v.1.15,2013-02-01 07:57:00,